Time,TemperatureF,DewpointF,PressureIn,WindDirection,WindDirectionDegrees,WindSpeedMPH,WindSpeedGustMPH,Humidity,HourlyPrecipIn,Conditions,Clouds,dailyrainin,SolarRadiationWatts/m^2,SoftwareType,DateUTC
2013-08-17 00:01:00,68.0,20.0,-100.00,WNW,285,4.0,9.0,16,-99.99,,,0.00,0.000000,,2013-08-17 06:01:00,
2013-08-17 00:12:00,68.0,20.0,-100.00,WNW,285,4.0,9.0,16,-99.99,,,0.00,0.000000,,2013-08-17 06:12:00,
2013-08-17 00:42:00,65.0,22.0,-100.00,WNW,285,5.0,14.0,19,0.00,,,-99.99,0.000000,,2013-08-17 06:42:00,
2013-08-17 00:52:00,65.0,22.0,-100.00,WNW,285,5.0,14.0,19,0.00,,,-99.99,0.000000,,2013-08-17 06:52:00,
2013-08-17 01:01:00,65.0,22.0,-100.00,WNW,285,5.0,14.0,19,0.00,,,-99.99,0.000000,,2013-08-17 07:01:00,
2013-08-17 01:11:00,65.0,22.0,-100.00,WNW,285,5.0,14.0,19,0.00,,,-99.99,0.000000,,2013-08-17 07:11:00,
2013-08-17 01:42:00,62.0,26.0,-100.00,WNW,291,3.0,9.0,25,0.00,,,0.00,0.000000,,2013-08-17 07:42:00,
2013-08-17 01:52:00,62.0,26.0,-100.00,WNW,291,3.0,9.0,25,0.00,,,0.00,0.000000,,2013-08-17 07:52:00,
2013-08-17 02:01:00,62.0,26.0,-100.00,WNW,291,3.0,9.0,25,0.00,,,0.00,0.000000,,2013-08-17 08:01:00,
2013-08-17 02:11:00,62.0,26.0,-100.00,WNW,291,3.0,9.0,25,0.00,,,0.00,0.000000,,2013-08-17 08:11:00,
2013-08-17 02:42:00,68.0,23.0,-100.00,West,264,4.0,12.0,18,0.00,,,0.00,0.000000,,2013-08-17 08:42:00,
2013-08-17 02:52:00,68.0,23.0,-100.00,West,264,4.0,12.0,18,0.00,,,0.00,0.000000,,2013-08-17 08:52:00,
2013-08-17 03:01:00,68.0,23.0,-100.00,West,264,4.0,12.0,18,0.00,,,0.00,0.000000,,2013-08-17 09:01:00,
2013-08-17 03:11:00,68.0,23.0,-100.00,West,264,4.0,12.0,18,0.00,,,0.00,0.000000,,2013-08-17 09:11:00,
2013-08-17 03:43:00,66.0,24.0,-100.00,WNW,293,4.0,10.0,20,0.00,,,0.00,0.000000,,2013-08-17 09:43:00,
2013-08-17 03:53:00,66.0,24.0,-100.00,WNW,293,4.0,10.0,20,0.00,,,0.00,0.000000,,2013-08-17 09:53:00,
2013-08-17 04:03:00,66.0,24.0,-100.00,WNW,293,4.0,10.0,20,0.00,,,0.00,0.000000,,2013-08-17 10:03:00,
2013-08-17 04:12:00,66.0,24.0,-100.00,WNW,293,4.0,10.0,20,0.00,,,0.00,0.000000,,2013-08-17 10:12:00,
2013-08-17 04:42:00,60.0,26.0,-100.00,West,268,4.0,7.0,27,0.00,,,0.00,0.000000,,2013-08-17 10:42:00,
2013-08-17 04:52:00,60.0,26.0,-100.00,West,268,4.0,7.0,27,0.00,,,0.00,0.000000,,2013-08-17 10:52:00,
2013-08-17 05:02:00,60.0,26.0,-100.00,West,268,4.0,7.0,27,0.00,,,0.00,0.000000,,2013-08-17 11:02:00,
2013-08-17 05:11:00,60.0,26.0,-100.00,West,268,4.0,7.0,27,0.00,,,0.00,0.000000,,2013-08-17 11:11:00,
2013-08-17 05:42:00,59.0,25.0,-100.00,West,276,4.0,7.0,27,0.00,,,0.00,0.000000,,2013-08-17 11:42:00,
2013-08-17 05:52:00,59.0,25.0,-100.00,West,276,4.0,7.0,27,0.00,,,0.00,0.000000,,2013-08-17 11:52:00,
2013-08-17 06:01:00,59.0,25.0,-100.00,West,276,4.0,7.0,27,0.00,,,0.00,0.000000,,2013-08-17 12:01:00,
2013-08-17 06:11:00,59.0,25.0,-100.00,West,276,4.0,7.0,27,0.00,,,0.00,0.000000,,2013-08-17 12:11:00,
2013-08-17 06:42:00,55.0,28.0,-100.00,West,271,3.0,9.0,35,0.00,,,0.00,0.000000,,2013-08-17 12:42:00,
2013-08-17 06:52:00,55.0,28.0,-100.00,West,271,3.0,9.0,35,0.00,,,0.00,0.000000,,2013-08-17 12:52:00,
2013-08-17 07:01:00,55.0,28.0,-100.00,West,271,3.0,9.0,35,0.00,,,0.00,0.000000,,2013-08-17 13:01:00,
2013-08-17 07:11:00,55.0,28.0,-100.00,West,271,3.0,9.0,35,0.00,,,0.00,0.000000,,2013-08-17 13:11:00,
2013-08-17 07:42:00,57.0,32.0,-100.00,West,277,4.0,8.0,39,0.00,,,0.00,22.000000,,2013-08-17 13:42:00,
2013-08-17 07:52:00,57.0,32.0,-100.00,West,277,4.0,8.0,39,0.00,,,0.00,22.000000,,2013-08-17 13:52:00,
2013-08-17 08:01:00,57.0,32.0,-100.00,West,277,4.0,8.0,39,0.00,,,0.00,22.000000,,2013-08-17 14:01:00,
2013-08-17 08:11:00,57.0,32.0,-100.00,West,277,4.0,8.0,39,0.00,,,0.00,22.000000,,2013-08-17 14:11:00,
2013-08-17 08:42:00,62.0,36.0,-100.00,West,279,4.0,7.0,38,0.00,,,0.00,107.000000,,2013-08-17 14:42:00,
2013-08-17 08:52:00,62.0,36.0,-100.00,West,279,4.0,7.0,38,0.00,,,0.00,107.000000,,2013-08-17 14:52:00,
2013-08-17 09:01:00,62.0,36.0,-100.00,West,279,4.0,7.0,38,0.00,,,0.00,107.000000,,2013-08-17 15:01:00,
2013-08-17 09:11:00,62.0,36.0,-100.00,West,279,4.0,7.0,38,0.00,,,0.00,107.000000,,2013-08-17 15:11:00,
2013-08-17 09:53:00,72.0,41.0,-100.00,East,97,2.0,6.0,33,0.00,,,0.00,340.000000,,2013-08-17 15:53:00,
2013-08-17 10:03:00,72.0,41.0,-100.00,East,97,2.0,6.0,33,0.00,,,0.00,340.000000,,2013-08-17 16:03:00,
2013-08-17 10:12:00,72.0,41.0,-100.00,East,97,2.0,6.0,33,0.00,,,0.00,340.000000,,2013-08-17 16:12:00,
2013-08-17 10:42:00,73.0,38.0,-100.00,ESE,114,7.0,11.0,28,0.00,,,-99.99,476.000000,,2013-08-17 16:42:00,
2013-08-17 10:53:00,73.0,38.0,-100.00,ESE,114,7.0,11.0,28,0.00,,,-99.99,476.000000,,2013-08-17 16:53:00,
2013-08-17 11:02:00,73.0,38.0,-100.00,ESE,114,7.0,11.0,28,0.00,,,-99.99,476.000000,,2013-08-17 17:02:00,
2013-08-17 11:12:00,73.0,38.0,-100.00,ESE,114,7.0,11.0,28,0.00,,,-99.99,476.000000,,2013-08-17 17:12:00,
2013-08-17 11:42:00,72.0,41.0,-100.00,ESE,115,7.0,12.0,32,0.00,,,0.00,498.000000,,2013-08-17 17:42:00,
2013-08-17 11:52:00,72.0,41.0,-100.00,ESE,115,7.0,12.0,32,0.00,,,0.00,498.000000,,2013-08-17 17:52:00,
2013-08-17 12:02:00,72.0,41.0,-100.00,ESE,115,7.0,12.0,32,0.00,,,0.00,498.000000,,2013-08-17 18:02:00,
2013-08-17 12:11:00,72.0,41.0,-100.00,ESE,115,7.0,12.0,32,0.00,,,0.00,498.000000,,2013-08-17 18:11:00,
2013-08-17 12:42:00,74.0,41.0,-100.00,ESE,117,10.0,14.0,30,0.00,,,0.00,614.000000,,2013-08-17 18:42:00,
2013-08-17 12:52:00,74.0,41.0,-100.00,ESE,117,10.0,14.0,30,0.00,,,0.00,614.000000,,2013-08-17 18:52:00,
2013-08-17 13:01:00,74.0,41.0,-100.00,ESE,117,10.0,14.0,30,0.00,,,0.00,614.000000,,2013-08-17 19:01:00,
2013-08-17 13:11:00,74.0,41.0,-100.00,ESE,117,10.0,14.0,30,0.00,,,0.00,614.000000,,2013-08-17 19:11:00,
2013-08-17 13:42:00,77.0,39.0,-100.00,SE,125,10.0,17.0,26,0.00,,,0.00,848.000000,,2013-08-17 19:42:00,
2013-08-17 13:52:00,77.0,39.0,-100.00,SE,125,10.0,17.0,26,0.00,,,0.00,848.000000,,2013-08-17 19:52:00,
2013-08-17 14:02:00,77.0,39.0,-100.00,SE,125,10.0,17.0,26,0.00,,,0.00,848.000000,,2013-08-17 20:02:00,
2013-08-17 14:11:00,77.0,39.0,-100.00,SE,125,10.0,17.0,26,0.00,,,0.00,848.000000,,2013-08-17 20:11:00,
2013-08-17 14:42:00,78.0,40.0,-100.00,ESE,118,11.0,20.0,26,0.00,,,0.00,770.000000,,2013-08-17 20:42:00,
2013-08-17 14:52:00,78.0,40.0,-100.00,ESE,118,11.0,20.0,26,0.00,,,0.00,770.000000,,2013-08-17 20:52:00,
2013-08-17 15:01:00,78.0,40.0,-100.00,ESE,118,11.0,20.0,26,0.00,,,0.00,770.000000,,2013-08-17 21:01:00,
2013-08-17 15:11:00,78.0,40.0,-100.00,ESE,118,11.0,20.0,26,0.00,,,0.00,770.000000,,2013-08-17 21:11:00,
2013-08-17 15:42:00,76.0,41.0,-100.00,ESE,114,8.0,20.0,29,0.00,,,0.00,712.000000,,2013-08-17 21:42:00,
2013-08-17 15:53:00,76.0,41.0,-100.00,ESE,114,8.0,20.0,29,0.00,,,0.00,712.000000,,2013-08-17 21:53:00,
2013-08-17 16:03:00,76.0,41.0,-100.00,ESE,114,8.0,20.0,29,0.00,,,0.00,712.000000,,2013-08-17 22:03:00,
2013-08-17 16:12:00,76.0,41.0,-100.00,ESE,114,8.0,20.0,29,0.00,,,0.00,712.000000,,2013-08-17 22:12:00,
2013-08-17 16:42:00,76.0,41.0,-100.00,ESE,113,10.0,17.0,29,0.00,,,0.00,628.000000,,2013-08-17 22:42:00,
2013-08-17 16:52:00,76.0,41.0,-100.00,ESE,113,10.0,17.0,29,0.00,,,0.00,628.000000,,2013-08-17 22:52:00,
2013-08-17 17:02:00,76.0,41.0,-100.00,ESE,113,10.0,17.0,29,0.00,,,0.00,628.000000,,2013-08-17 23:02:00,
2013-08-17 17:11:00,76.0,41.0,-100.00,ESE,113,10.0,17.0,29,0.00,,,0.00,628.000000,,2013-08-17 23:11:00,
2013-08-17 17:42:00,78.0,41.0,-100.00,ESE,118,6.0,14.0,27,0.00,,,0.00,619.000000,,2013-08-17 23:42:00,
2013-08-17 17:52:00,78.0,41.0,-100.00,ESE,118,6.0,14.0,27,0.00,,,0.00,619.000000,,2013-08-17 23:52:00,
2013-08-17 18:01:00,78.0,41.0,-100.00,ESE,118,6.0,14.0,27,0.00,,,0.00,619.000000,,2013-08-18 00:01:00,
2013-08-17 18:11:00,78.0,41.0,-100.00,ESE,118,6.0,14.0,27,0.00,,,0.00,619.000000,,2013-08-18 00:11:00,
2013-08-17 18:42:00,76.0,41.0,-100.00,ESE,116,4.0,12.0,28,0.00,,,0.00,376.000000,,2013-08-18 00:42:00,
2013-08-17 18:52:00,76.0,41.0,-100.00,ESE,116,4.0,12.0,28,0.00,,,0.00,376.000000,,2013-08-18 00:52:00,
2013-08-17 19:01:00,76.0,41.0,-100.00,ESE,116,4.0,12.0,28,0.00,,,0.00,376.000000,,2013-08-18 01:01:00,
2013-08-17 19:11:00,76.0,41.0,-100.00,ESE,116,4.0,12.0,28,0.00,,,0.00,376.000000,,2013-08-18 01:11:00,
2013-08-17 19:42:00,73.0,42.0,-100.00,ENE,66,1.0,8.0,33,0.00,,,0.00,207.000000,,2013-08-18 01:42:00,
2013-08-17 19:52:00,73.0,42.0,-100.00,ENE,66,1.0,8.0,33,0.00,,,0.00,207.000000,,2013-08-18 01:52:00,
2013-08-17 20:02:00,73.0,42.0,-100.00,ENE,66,1.0,8.0,33,0.00,,,0.00,207.000000,,2013-08-18 02:02:00,
2013-08-17 20:11:00,73.0,42.0,-100.00,ENE,66,1.0,8.0,33,0.00,,,0.00,207.000000,,2013-08-18 02:11:00,
2013-08-17 20:42:00,67.0,43.0,-100.00,West,269,4.0,6.0,41,0.00,,,0.00,49.000000,,2013-08-18 02:42:00,
2013-08-17 20:52:00,67.0,43.0,-100.00,West,269,4.0,6.0,41,0.00,,,0.00,49.000000,,2013-08-18 02:52:00,
2013-08-17 21:02:00,67.0,43.0,-100.00,West,269,4.0,6.0,41,0.00,,,0.00,49.000000,,2013-08-18 03:02:00,
2013-08-17 21:11:00,67.0,43.0,-100.00,West,269,4.0,6.0,41,0.00,,,0.00,49.000000,,2013-08-18 03:11:00,
2013-08-17 21:43:00,62.0,40.0,-100.00,West,274,3.0,8.0,45,0.00,,,0.00,0.000000,,2013-08-18 03:43:00,
2013-08-17 21:53:00,62.0,40.0,-100.00,West,274,3.0,8.0,45,0.00,,,0.00,0.000000,,2013-08-18 03:53:00,
2013-08-17 22:02:00,-999.0,-99.9,-100.00,West,274,3.0,8.0,-999,0.00,,,0.00,0.000000,,2013-08-18 04:02:00,
2013-08-17 22:12:00,62.0,40.0,-100.00,West,274,3.0,8.0,45,0.00,,,0.00,0.000000,,2013-08-18 04:12:00,
2013-08-17 22:42:00,60.0,39.0,-100.00,West,264,4.0,7.0,46,0.00,,,0.00,0.000000,,2013-08-18 04:42:00,
2013-08-17 22:53:00,60.0,39.0,-100.00,West,264,4.0,7.0,46,0.00,,,0.00,0.000000,,2013-08-18 04:53:00,
2013-08-17 23:02:00,60.0,39.0,-100.00,West,264,4.0,7.0,46,0.00,,,0.00,0.000000,,2013-08-18 05:02:00,
2013-08-17 23:12:00,60.0,39.0,-100.00,West,264,4.0,7.0,46,0.00,,,0.00,0.000000,,2013-08-18 05:12:00,
2013-08-17 23:42:00,58.0,39.0,-100.00,West,270,4.0,7.0,49,0.00,,,0.00,0.000000,,2013-08-18 05:42:00,
2013-08-17 23:52:00,58.0,39.0,-100.00,West,270,4.0,7.0,49,0.00,,,0.00,0.000000,,2013-08-18 05:52:00,